{"data":{"norad_id":28493,"epoch":"2026-05-25T02:48:06.568416Z","epoch_age_seconds":65193,"freshness":"FRESH","line1":"1 28493U 04049B   26145.11674269  .00000837  00000+0  11770-3 0  9993","line2":"2 28493  98.2244 281.2186 0004298  25.4000 334.7421 14.80104887152035","mean_motion":14.80104887,"eccentricity":0.0004298,"inclination_deg":98.2244,"raan_deg":281.2186,"arg_perigee_deg":25.4,"mean_anomaly_deg":334.7421,"bstar":0.0001177,"rev_number":15203,"period_min":97.290402365924,"perigee_km":625.98141251457,"apogee_km":632.00474152877,"semimajor_km":7007.1300770217,"source":"CELESTRAK","updated_at":"2026-05-25T13:37:55.063357Z"}}